Presure
187 186 167 126 114 111 141 135 138 139 143 141 136 142 137 141 127 112 113 125 128 129 136 142 116 137 149 144 121 106 144 116 113 106 115 142 124 158 150 158 153 177 165
190 185 175 168 124 170 134 144 147 127 150 153 161 137 134 141 113 122 120 127 115 128 135 130 145 137 151 127 131 153 111 150 131 149 117 110 118 186 122 147 169 153 143
186 191 177 171 146 130 167 124 127 153 134 144 125 134 110 110 109 107 110 125 126 138 127 145 129 163 138 140 125 141 122 143 151 121 118 143 234 153 225 136 154 153 163
198 192 176 171 152 150 135 142 121 126 133 129 128 136 128 123 127 104 146 115 125 127 133 135 138 120 142 133 125 125 144 125 156 119 145 189 121 204 183 137 143 171 152
150 178 178 166 154 163 165 162 135 131 127 126 127 126 127 126 148 150 124 124 145 127 128 126 150 141 141 156 139 131 131 146 127 117 295 120 130 276 126 130 131 140 153
145 149 183 174 173 162 159 156 157 140 141 142 141 142 149 152 188 125 124 132 176 162 160 160 126 128 126 137 115 128 145 269 232 124 136 115 142 120 177 184 117 110 164
144 135 140 146 149 175 171 169 163 158 155 157 160 171 184 183 177 174 172 164 153 153 151 136 157 148 104 138 154 141 189 144 222 140 264 117 239 175 190 119 125 111 204
136 133 132 136 146 145 145 154 158 163 169 178 182 172 158 155 155 153 152 151 151 141 147 142 144 114 212 138 128 186 130 238 136 222 234 214 163 187 144 164 126 162 166
136 132 135 136 137 139 140 146 147 122 145 144 145 146 147 150 151 149 147 145 145 145 149 140 164 127 180 188 167 140 194 254 117 222 120 163 196 170 175 141 115 172 176
169 168 135 133 138 139 145 145 140 141 143 140 127 142 144 146 147 146 133 131 139 144 149 136 183 142 185 179 152 149 144 143 123 118 118 201 188 160 127 172 176 131 155
120 154 170 132 124 122 137 142 142 145 146 146 146 145 148 145 143 144 139 138 131 133 136 154 152 173 107 182 127 119 185 216 211 201 111 208 186 200 157 157 172 157 162
122 159 165 150 156 164 170 157 134 140 126 134 136 118 128 140 135 132 132 191 128 164 182 174 181 168 172 182 128 187 120 184 218 172 146 206 173 156 184 177 163 198 154
178 96 174 117 171 132 158 136 170 142 135 129 132 155 143 133 220 204 194 192 189 185 173 183 167 184 189 161 149 184 188 127 130 210 202 172 135 174 171 172 166 130 148
203 195 113 188 189 187 186 186 186 154 187 189 185 122 225 208 202 186 194 187 189 179 182 177 181 182 181 116 178 181 125 190 120 183 228 193 203 183 175 150 147 124 170
232 237 218 198 195 194 192 193 194 198 218 238 217 221 200 198 189 193 185 186 179 163 172 183 176 148 169 182 175 184 179 191 126 183 159 191 142 157 155 152 149 130 160
202 202 207 216 215 212 224 221 224 222 221 218 207 195 193 189 189 186 170 153 155 169 172 175 172 167 181 167 159 196 193 252 184 194 179 138 180 232 153 166 151 131 154
182 189 195 203 201 199 194 205 196 201 198 192 190 193 183 189 187 179 179 172 164 158 163 161 163 177 171 169 171 180 171 135 197 183 190 247 193 223 167 159 172 172 151
184 184 182 181 182 184 190 208 204 193 186 187 184 181 179 179 173 156 166 162 156 172 159 163 168 183 170 168 158 198 223 228 122 215 193 188 234 149 187 172 160 216 146
183 179 181 177 180 179 182 180 180 178 183 172 178 168 160 162 171 171 166 185 170 153 169 189 164 177 180 151 189 182 163 161 125 208 191 169 168 169 191 145 158 139 155
182 184 180 180 182 177 173 173 182 172 177 176 176 178 179 174 172 179 164 175 155 176 190 181 171 151 183 124 156 200 149 230 162 239 237 220 172 181 168 152 145 150 160
188 184 183 185 185 178 174 174 177 185 178 174 172 170 167 186 193 185 179 188 162 162 170 149 195 156 122 191 210 159 224 164 200 239 238 174 169 178 162 176 141 169 165
174 173 171 176 182 182 182 180 174 179 179 177 173 173 178 159 162 152 191 160 180 201 165 196 198 194 171 194 230 194 155 170 164 220 248 285 201 155 173 184 168 174 176
196 192 186 175 177 146 185 183 163 186 185 151 183 185 169 193 182 150 179 210 170 183 184 188 193 189 163 223 177 211 182 201 154 214 204 225 263 216 176 174 178 176 180
192 192 194 199 204 200 180 197 191 204 201 184 163 199 203 194 152 172 198 174 167 208 206 206 187 188 204 194 233 179 180 174 220 228 217 293 239 248 188 179 201 167 178
192 197 201 199 199 193 192 195 184 199 203 196 180 205 163 203 191 147 203 214 170 206 223 205 214 228 224 243 234 242 197 225 156 207 250 270 258 237 199 171 177 154 166
155 192 189 197 194 185 191 187 200 186 191 168 203 161 163 144 191 202 211 212 206 177 189 195 214 174 157 240 223 218 215 219 218 235 254 273 272 130 222 213 182 174 193
Wind_Speed
38 37 35 36 32 34 29 27 25 23 25 24 17 19 12 16 10 13 12 12 12 14 26 31 17 22 36 31 23 26 40 27 23 24 32 43 36 31 38 28 24 19 24
36 37 36 31 39 33 32 31 30 27 30 33 33 25 14 16 19 17 16 16 14 18 27 20 36 19 35 13 30 39 31 39 35 41 32 28 35 22 38 41 20 24 33
37 39 33 27 41 40 34 34 30 34 25 27 21 16 21 21 20 14 14 19 18 30 14 34 20 36 29 24 14 32 15 40 44 39 38 44 31 34 29 32 30 36 31
42 37 34 33 41 40 36 36 33 31 30 25 26 24 23 26 27 16 36 19 22 20 27 29 30 18 34 24 24 17 41 23 46 39 43 36 30 34 31 28 33 20 33
27 39 36 40 41 42 39 37 35 36 36 34 34 29 29 32 39 37 24 24 33 25 20 20 33 34 35 42 30 35 17 45 29 39 23 31 45 21 42 48 53 42 34
33 28 38 41 46 40 37 35 36 39 40 36 36 35 35 40 38 31 28 33 41 41 42 43 17 20 21 31 27 21 43 29 28 34 48 31 51 43 14 14 21 35 26
35 32 31 30 32 43 41 41 42 40 41 42 42 43 39 39 40 41 42 42 43 42 44 31 48 46 28 39 44 37 46 44 25 45 13 43 12 23 13 29 30 37 22
40 40 40 40 39 37 33 38 39 42 46 45 44 42 38 39 41 40 43 46 46 42 45 44 45 34 38 35 30 41 19 30 33 16 19 14 36 19 45 33 43 37 37
48 42 41 42 42 44 43 44 43 39 45 42 42 43 43 43 42 41 46 49 48 48 50 45 37 35 46 45 41 37 35 32 34 25 42 41 13 29 5 33 43 19 17
61 56 47 51 51 50 51 48 45 48 48 43 34 44 43 41 43 42 42 45 48 52 55 47 48 51 39 50 47 34 38 35 30 33 41 24 24 37 51 20 29 57 48
38 54 58 50 44 36 45 48 52 55 54 51 50 50 49 44 46 49 47 51 46 47 50 48 36 42 34 46 32 26 49 39 29 35 39 34 24 25 36 43 36 51 43
47 64 63 58 63 62 63 57 47 50 39 42 43 39 42 47 42 42 45 40 47 45 44 44 38 40 51 44 39 44 32 48 37 43 29 38 38 35 27 31 38 42 43
64 28 67 48 65 55 60 53 67 61 54 44 49 62 59 42 40 43 45 39 38 38 42 39 45 37 37 46 38 47 46 39 41 39 46 46 39 33 36 32 36 47 53
68 70 39 70 71 70 70 70 69 56 65 63 62 46 40 44 45 53 43 46 43 40 39 42 40 40 40 26 44 49 34 50 39 57 42 52 51 40 39 48 45 47 37
49 52 61 68 70 68 66 66 64 63 55 44 46 41 51 49 51 46 47 47 45 45 44 43 45 45 48 43 49 49 53 44 44 54 47 39 48 53 48 53 54 43 56
56 59 60 56 56 56 52 52 50 47 46 44 45 52 49 51 47 48 48 48 48 47 46 45 49 54 47 59 61 47 45 58 49 46 52 52 51 50 52 50 59 45 61
57 53 52 53 57 59 60 55 57 54 53 51 53 52 54 53 53 52 51 48 46 48 45 48 53 52 52 61 58 57 50 48 50 60 50 50 50 51 52 52 46 65 59
60 58 58 56 57 56 54 53 52 53 56 57 58 54 53 54 53 51 50 49 50 50 47 51 48 49 54 56 69 56 63 63 45 56 56 45 47 55 39 33 41 64 63
65 63 62 58 57 60 57 57 59 57 58 58 59 52 52 54 57 56 55 60 54 53 56 58 51 47 57 74 49 59 50 47 44 50 60 48 47 40 20 47 38 59 61
70 68 67 66 64 62 63 62 61 62 62 63 64 66 64 62 62 64 53 55 54 51 65 59 48 73 61 41 73 67 51 64 49 55 53 48 48 39 44 54 52 43 58
75 75 75 73 71 69 67 67 65 65 63 62 62 58 56 70 74 68 54 69 49 55 53 74 73 72 39 68 74 73 68 75 58 53 48 57 54 53 61 41 58 51 72
75 71 70 69 74 75 74 72 66 71 65 67 64 64 67 46 63 53 75 54 72 75 58 77 80 77 54 73 84 58 77 70 70 44 64 59 57 66 70 61 56 60 78
84 86 85 76 77 53 84 84 61 85 80 57 79 79 64 81 77 67 78 83 52 62 64 71 78 75 75 84 78 72 64 61 56 49 55 46 48 65 81 66 68 69 85
91 90 91 92 94 92 71 90 86 92 92 67 64 87 91 72 66 56 84 57 74 95 89 85 76 77 84 65 80 80 77 57 62 54 49 53 58 63 78 84 78 84 85
93 92 96 97 96 93 92 96 79 100 99 89 60 98 81 95 92 74 99 103 84 94 98 87 94 93 89 88 82 78 72 70 67 57 71 57 57 72 80 84 92 68 80
61 85 79 97 97 77 85 75 96 54 66 52 89 68 51 74 89 92 104 104 92 90 89 86 91 84 75 86 78 77 75 73 75 66 59 51 52 49 78 79 87 99 91
Wind_Direction
228 232 233 211 220 234 234 231 239 242 252 254 255 265 276 280 280 279 286 295 324 343 332 325 277 338 326 333 338 343 337 334 344 350 346 342 346 339 340 330 336 360 345
227 231 231 235 218 245 221 240 252 228 256 263 262 263 261 282 265 277 281 293 275 323 315 317 317 280 319 307 319 323 320 325 333 335 326 337 337 302 341 333 316 314 324
225 228 226 228 227 224 247 229 234 251 241 256 239 255 261 261 268 282 290 294 301 303 314 307 326 311 335 312 292 330 301 335 328 319 321 330 302 325 292 325 312 326 328
222 224 219 221 232 236 232 238 242 242 247 244 245 262 245 248 260 287 288 287 291 303 304 307 313 283 317 316 297 295 325 313 323 314 328 310 339 319 320 321 322 305 317
238 223 220 227 242 239 241 246 242 245 245 243 245 248 252 254 282 282 275 282 291 294 306 280 304 313 313 304 319 310 318 326 296 304 305 328 324 296 322 329 335 323 302
247 242 222 229 234 246 250 252 252 250 257 260 263 267 275 279 286 273 279 283 298 293 294 294 286 307 300 310 276 271 315 323 326 300 322 327 319 315 279 234 336 339 291
240 239 248 245 244 246 250 253 256 258 263 269 274 278 278 281 285 287 289 289 286 290 292 297 297 300 290 305 311 315 320 314 326 319 315 303 274 264 300 322 314 330 315
238 238 239 243 246 246 243 249 259 265 269 270 274 272 268 269 272 276 280 282 286 290 293 297 299 276 323 302 280 330 280 330 302 297 287 285 313 256 307 279 322 287 308
238 239 243 247 248 248 247 245 246 251 255 258 261 263 265 267 272 277 282 287 289 292 293 296 301 290 310 313 313 306 329 333 270 299 291 308 268 271 321 309 328 277 312
234 237 244 245 245 247 249 251 254 257 259 261 267 268 271 275 280 282 283 284 289 291 295 297 311 299 311 311 305 306 300 297 259 302 291 289 263 278 308 290 309 315 285
236 241 238 251 252 256 254 252 252 256 259 262 266 271 276 282 278 279 280 283 288 293 295 299 293 304 272 312 289 294 310 327 295 303 297 292 274 281 275 284 290 315 279
241 242 238 248 246 248 250 254 264 265 262 273 274 265 268 275 274 274 278 282 285 289 294 299 296 294 297 305 292 314 292 312 312 293 314 294 295 283 305 301 279 311 286
239 248 243 249 247 257 253 261 255 265 267 265 269 272 273 271 272 275 282 283 281 283 288 288 290 291 300 295 293 308 308 286 288 290 282 288 299 291 277 283 283 308 294
241 242 253 247 249 251 254 257 260 265 267 271 275 267 264 267 271 282 282 286 287 290 291 288 293 297 296 287 292 296 280 301 284 296 275 288 282 284 283 300 301 305 306
235 238 242 249 252 255 258 261 264 267 261 250 260 253 263 267 276 278 281 282 286 287 290 293 292 282 289 289 291 290 289 300 288 290 293 294 298 294 294 300 300 304 316
242 245 245 245 248 251 248 247 249 248 248 249 254 264 262 268 270 273 275 276 282 288 293 293 290 286 294 291 291 297 292 314 282 282 279 287 270 263 285 279 294 300 311
241 245 248 248 248 250 254 251 256 257 259 257 257 256 267 266 266 269 273 278 279 283 287 285 288 297 292 292 294 296 285 281 288 275 277 296 267 263 274 288 288 284 306
246 246 247 248 251 253 254 252 250 252 257 258 261 263 267 269 270 269 276 277 275 277 275 284 279 289 282 282 288 300 306 302 281 291 276 264 282 288 259 280 296 292 307
247 250 249 249 250 254 254 254 257 258 255 263 263 264 262 266 269 270 268 275 275 266 282 288 271 283 283 279 285 286 284 288 280 289 278 258 267 269 243 291 305 297 311
252 252 254 254 254 253 257 258 254 258 257 259 260 262 264 266 268 270 266 275 259 287 293 290 278 273 301 276 275 299 285 305 283 305 288 271 258 252 268 282 286 290 279
252 253 255 256 257 259 260 261 263 262 263 265 265 264 260 274 275 278 279 284 260 264 285 268 294 269 277 306 305 285 306 282 293 300 291 263 256 242 270 247 292 259 262
257 259 261 262 262 264 267 269 271 272 273 274 276 274 277 246 266 253 282 255 287 290 269 292 297 293 275 301 302 300 283 281 283 293 313 296 251 275 260 233 247 243 250
247 249 253 261 263 263 262 265 247 266 269 238 268 273 262 275 269 253 274 287 276 290 287 296 298 292 260 301 283 300 283 295 284 284 277 255 233 243 253 254 248 254 246
257 257 257 256 254 257 266 265 265 268 270 272 253 276 278 279 249 275 285 275 270 292 294 294 280 294 294 288 299 274 278 288 302 294 282 283 238 227 244 255 239 272 258
261 264 263 265 265 267 269 270 271 273 272 274 266 281 263 285 279 266 289 290 275 293 295 296 293 296 298 299 298 299 291 300 286 287 305 295 251 230 247 259 255 280 274
260 266 264 267 270 273 272 269 273 273 277 251 281 280 277 263 283 289 289 292 293 274 288 282 289 281 271 297 296 294 295 297 289 295 287 272 270 293 243 248 259 260 257